Location: Clyde
(45.1830°S, 169.3170°E)
Time: 06:19:23
(UTC+12:00)

NOAA 12 - Pass Details

Date: 14 May 2021
Orbit: 796 x 814 km, 98.5° (Epoch: 19 June)

Event Time Altitude Azimuth Distance (km) Brightness Sun altitude
Rises 18:59:41 0° 166° (SSE) 3,378 7.1 -16.7°
Reaches altitude 10° 19:02:03 10° 165° (SSE) 2,437 6.4 -17.1°
Maximum altitude 19:07:28 85° 77° (ENE) 829 4.1 -18.1°
Drops below altitude 10° 19:12:48 10° 346° (NNW) 2,395 6.8 -19.0°
Sets 19:15:07 0° 346° (NNW) 3,315 7.6 -19.4°
